Data supplied by UK-AIR on 9/6/2008
All Data GMT hour ending 
Status: R =Ratified P=Provisional,P*=As supplied
,,Walsall Alumwell,,,,,,,,,,,,,,,,,,,,,,,
Date,time,"Nitric oxide",status,unit,"Nitrogen dioxide",status,unit,"Nitrogen oxides as nitrogen dioxide",status,unit
 
01-01-2006,01:00,1,R,ugm-3,13,R,ugm-3,15,R,ugm-3
01-01-2006,02:00,1,R,ugm-3,17,R,ugm-3,19,R,ugm-3
01-01-2006,03:00,1,R,ugm-3,11,R,ugm-3,13,R,ugm-3
01-01-2006,04:00,1,R,ugm-3,10,R,ugm-3,11,R,ugm-3
01-01-2006,05:00,1,R,ugm-3,10,R,ugm-3,11,R,ugm-3
01-01-2006,06:00,1,R,ugm-3,8,R,ugm-3,10,R,ugm-3
01-01-2006,07:00,1,R,ugm-3,6,R,ugm-3,8,R,ugm-3
01-01-2006,08:00,1,R,ugm-3,10,R,ugm-3,11,R,ugm-3
01-01-2006,09:00,1,R,ugm-3,13,R,ugm-3,15,R,ugm-3
01-01-2006,10:00,3,R,ugm-3,19,R,ugm-3,23,R,ugm-3
01-01-2006,11:00,3,R,ugm-3,19,R,ugm-3,23,R,ugm-3
01-01-2006,12:00,4,R,ugm-3,19,R,ugm-3,25,R,ugm-3
01-01-2006,13:00,5,R,ugm-3,19,R,ugm-3,27,R,ugm-3
01-01-2006,14:00,5,R,ugm-3,21,R,ugm-3,29,R,ugm-3
01-01-2006,15:00,5,R,ugm-3,25,R,ugm-3,32,R,ugm-3
01-01-2006,16:00,6,R,ugm-3,38,R,ugm-3,48,R,ugm-3
01-01-2006,17:00,11,R,ugm-3,44,R,ugm-3,61,R,ugm-3
01-01-2006,18:00,6,R,ugm-3,36,R,ugm-3,46,R,ugm-3
01-01-2006,19:00,5,R,ugm-3,36,R,ugm-3,44,R,ugm-3
01-01-2006,20:00,6,R,ugm-3,38,R,ugm-3,48,R,ugm-3
01-01-2006,21:00,6,R,ugm-3,38,R,ugm-3,48,R,ugm-3
01-01-2006,22:00,5,R,ugm-3,34,R,ugm-3,42,R,ugm-3
01-01-2006,23:00,5,R,ugm-3,36,R,ugm-3,44,R,ugm-3
01-01-2006,24:00,6,R,ugm-3,40,R,ugm-3,50,R,ugm-3
02-01-2006,01:00,5,R,ugm-3,34,R,ugm-3,42,R,ugm-3
02-01-2006,02:00,5,R,ugm-3,34,R,ugm-3,42,R,ugm-3
02-01-2006,03:00,3,R,ugm-3,32,R,ugm-3,36,R,ugm-3
02-01-2006,04:00,20,R,ugm-3,40,R,ugm-3,71,R,ugm-3
02-01-2006,05:00,15,R,ugm-3,40,R,ugm-3,63,R,ugm-3
02-01-2006,06:00,43,R,ugm-3,48,R,ugm-3,113,R,ugm-3
02-01-2006,07:00,99,R,ugm-3,61,R,ugm-3,212,R,ugm-3
02-01-2006,08:00,153,R,ugm-3,69,R,ugm-3,302,R,ugm-3
02-01-2006,09:00,131,R,ugm-3,59,R,ugm-3,260,R,ugm-3
02-01-2006,10:00,175,R,ugm-3,71,R,ugm-3,338,R,ugm-3
02-01-2006,11:00,235,R,ugm-3,86,R,ugm-3,445,R,ugm-3
02-01-2006,12:00,113,R,ugm-3,71,R,ugm-3,243,R,ugm-3
02-01-2006,13:00,33,R,ugm-3,55,R,ugm-3,105,R,ugm-3
02-01-2006,14:00,21,R,ugm-3,50,R,ugm-3,82,R,ugm-3
02-01-2006,15:00,19,R,ugm-3,50,R,ugm-3,78,R,ugm-3
02-01-2006,16:00,19,R,ugm-3,55,R,ugm-3,84,R,ugm-3
02-01-2006,17:00,45,R,ugm-3,63,R,ugm-3,132,R,ugm-3
02-01-2006,18:00,39,R,ugm-3,59,R,ugm-3,118,R,ugm-3
02-01-2006,19:00,39,R,ugm-3,59,R,ugm-3,118,R,ugm-3
02-01-2006,20:00,38,R,ugm-3,59,R,ugm-3,117,R,ugm-3
02-01-2006,21:00,24,R,ugm-3,55,R,ugm-3,92,R,ugm-3
02-01-2006,22:00,35,R,ugm-3,55,R,ugm-3,109,R,ugm-3
02-01-2006,23:00,15,R,ugm-3,50,R,ugm-3,73,R,ugm-3
02-01-2006,24:00,13,R,ugm-3,46,R,ugm-3,65,R,ugm-3
03-01-2006,01:00,11,R,ugm-3,44,R,ugm-3,61,R,ugm-3
03-01-2006,02:00,9,R,ugm-3,36,R,ugm-3,50,R,ugm-3
03-01-2006,03:00,3,R,ugm-3,34,R,ugm-3,38,R,ugm-3
03-01-2006,04:00,4,R,ugm-3,34,R,ugm-3,40,R,ugm-3
03-01-2006,05:00,3,R,ugm-3,31,R,ugm-3,34,R,ugm-3
03-01-2006,06:00,6,R,ugm-3,38,R,ugm-3,48,R,ugm-3
03-01-2006,07:00,26,R,ugm-3,53,R,ugm-3,94,R,ugm-3
03-01-2006,08:00,39,R,ugm-3,63,R,ugm-3,122,R,ugm-3
03-01-2006,09:00,48,R,ugm-3,63,R,ugm-3,136,R,ugm-3
03-01-2006,10:00,53,R,ugm-3,65,R,ugm-3,145,R,ugm-3
03-01-2006,11:00,50,R,ugm-3,61,R,ugm-3,138,R,ugm-3
03-01-2006,12:00,50,R,ugm-3,61,R,ugm-3,138,R,ugm-3
03-01-2006,13:00,64,R,ugm-3,65,R,ugm-3,162,R,ugm-3
03-01-2006,14:00,63,R,ugm-3,63,R,ugm-3,159,R,ugm-3
03-01-2006,15:00,54,R,ugm-3,61,R,ugm-3,143,R,ugm-3
03-01-2006,16:00,66,R,ugm-3,71,R,ugm-3,172,R,ugm-3
03-01-2006,17:00,51,R,ugm-3,71,R,ugm-3,149,R,ugm-3
03-01-2006,18:00,60,R,ugm-3,69,R,ugm-3,160,R,ugm-3
03-01-2006,19:00,39,R,ugm-3,65,R,ugm-3,124,R,ugm-3
03-01-2006,20:00,70,R,ugm-3,71,R,ugm-3,178,R,ugm-3
03-01-2006,21:00,78,R,ugm-3,74,R,ugm-3,193,R,ugm-3
03-01-2006,22:00,23,R,ugm-3,59,R,ugm-3,94,R,ugm-3
03-01-2006,23:00,4,R,ugm-3,48,R,ugm-3,53,R,ugm-3
03-01-2006,24:00,4,R,ugm-3,44,R,ugm-3,50,R,ugm-3
04-01-2006,01:00,3,R,ugm-3,38,R,ugm-3,42,R,ugm-3
04-01-2006,02:00,1,R,ugm-3,25,R,ugm-3,27,R,ugm-3
04-01-2006,03:00,1,R,ugm-3,29,R,ugm-3,31,R,ugm-3
04-01-2006,04:00,1,R,ugm-3,31,R,ugm-3,32,R,ugm-3
04-01-2006,05:00,4,R,ugm-3,25,R,ugm-3,31,R,ugm-3
04-01-2006,06:00,3,R,ugm-3,23,R,ugm-3,27,R,ugm-3
04-01-2006,07:00,4,R,ugm-3,34,R,ugm-3,40,R,ugm-3
04-01-2006,08:00,5,R,ugm-3,52,R,ugm-3,59,R,ugm-3
04-01-2006,09:00,13,R,ugm-3,61,R,ugm-3,80,R,ugm-3
04-01-2006,10:00,14,R,ugm-3,57,R,ugm-3,78,R,ugm-3
04-01-2006,11:00,94,R,ugm-3,124,R,ugm-3,267,R,ugm-3
04-01-2006,12:00,15,R,ugm-3,53,R,ugm-3,76,R,ugm-3
04-01-2006,13:00,15,R,ugm-3,59,R,ugm-3,82,R,ugm-3
04-01-2006,14:00,16,R,ugm-3,57,R,ugm-3,82,R,ugm-3
04-01-2006,15:00,14,R,ugm-3,48,R,ugm-3,69,R,ugm-3
04-01-2006,16:00,16,R,ugm-3,63,R,ugm-3,88,R,ugm-3
04-01-2006,17:00,16,R,ugm-3,69,R,ugm-3,94,R,ugm-3
04-01-2006,18:00,13,R,ugm-3,61,R,ugm-3,80,R,ugm-3
04-01-2006,19:00,11,R,ugm-3,55,R,ugm-3,73,R,ugm-3
04-01-2006,20:00,9,R,ugm-3,50,R,ugm-3,63,R,ugm-3
04-01-2006,21:00,4,R,ugm-3,46,R,ugm-3,52,R,ugm-3
04-01-2006,22:00,6,R,ugm-3,53,R,ugm-3,63,R,ugm-3
04-01-2006,23:00,6,R,ugm-3,53,R,ugm-3,63,R,ugm-3
04-01-2006,24:00,8,R,ugm-3,52,R,ugm-3,63,R,ugm-3
05-01-2006,01:00,4,R,ugm-3,42,R,ugm-3,48,R,ugm-3
05-01-2006,02:00,4,R,ugm-3,40,R,ugm-3,46,R,ugm-3
05-01-2006,03:00,3,R,ugm-3,38,R,ugm-3,42,R,ugm-3
05-01-2006,04:00,3,R,ugm-3,36,R,ugm-3,40,R,ugm-3
05-01-2006,05:00,3,R,ugm-3,36,R,ugm-3,40,R,ugm-3
05-01-2006,06:00,8,R,ugm-3,40,R,ugm-3,52,R,ugm-3
05-01-2006,07:00,6,R,ugm-3,38,R,ugm-3,48,R,ugm-3
05-01-2006,08:00,9,R,ugm-3,38,R,ugm-3,52,R,ugm-3
05-01-2006,09:00,6,R,ugm-3,38,R,ugm-3,48,R,ugm-3
05-01-2006,10:00,10,R,ugm-3,34,R,ugm-3,50,R,ugm-3
05-01-2006,11:00,,,,,,,,,
05-01-2006,12:00,,,,,,,,,
05-01-2006,13:00,11,R,ugm-3,32,R,ugm-3,50,R,ugm-3
05-01-2006,14:00,13,R,ugm-3,36,R,ugm-3,55,R,ugm-3
05-01-2006,15:00,13,R,ugm-3,40,R,ugm-3,59,R,ugm-3
05-01-2006,16:00,10,R,ugm-3,42,R,ugm-3,57,R,ugm-3
05-01-2006,17:00,6,R,ugm-3,46,R,ugm-3,55,R,ugm-3
05-01-2006,18:00,9,R,ugm-3,46,R,ugm-3,59,R,ugm-3
05-01-2006,19:00,6,R,ugm-3,42,R,ugm-3,52,R,ugm-3
05-01-2006,20:00,4,R,ugm-3,36,R,ugm-3,42,R,ugm-3
05-01-2006,21:00,4,R,ugm-3,34,R,ugm-3,40,R,ugm-3
05-01-2006,22:00,4,R,ugm-3,31,R,ugm-3,36,R,ugm-3
05-01-2006,23:00,3,R,ugm-3,29,R,ugm-3,32,R,ugm-3
05-01-2006,24:00,3,R,ugm-3,34,R,ugm-3,38,R,ugm-3
06-01-2006,01:00,1,R,ugm-3,27,R,ugm-3,29,R,ugm-3
06-01-2006,02:00,1,R,ugm-3,27,R,ugm-3,29,R,ugm-3
06-01-2006,03:00,3,R,ugm-3,29,R,ugm-3,32,R,ugm-3
06-01-2006,04:00,3,R,ugm-3,25,R,ugm-3,29,R,ugm-3
06-01-2006,05:00,5,R,ugm-3,29,R,ugm-3,36,R,ugm-3
06-01-2006,06:00,5,R,ugm-3,32,R,ugm-3,40,R,ugm-3
06-01-2006,07:00,8,R,ugm-3,34,R,ugm-3,46,R,ugm-3
06-01-2006,08:00,15,R,ugm-3,36,R,ugm-3,59,R,ugm-3
06-01-2006,09:00,23,R,ugm-3,38,R,ugm-3,73,R,ugm-3
06-01-2006,10:00,24,R,ugm-3,38,R,ugm-3,74,R,ugm-3
06-01-2006,11:00,31,R,ugm-3,38,R,ugm-3,86,R,ugm-3
06-01-2006,12:00,40,R,ugm-3,42,R,ugm-3,103,R,ugm-3
06-01-2006,13:00,44,R,ugm-3,42,R,ugm-3,109,R,ugm-3
06-01-2006,14:00,40,R,ugm-3,44,R,ugm-3,105,R,ugm-3
06-01-2006,15:00,39,R,ugm-3,46,R,ugm-3,105,R,ugm-3
06-01-2006,16:00,43,R,ugm-3,46,R,ugm-3,111,R,ugm-3
06-01-2006,17:00,45,R,ugm-3,46,R,ugm-3,115,R,ugm-3
06-01-2006,18:00,39,R,ugm-3,48,R,ugm-3,107,R,ugm-3
06-01-2006,19:00,36,R,ugm-3,46,R,ugm-3,101,R,ugm-3
06-01-2006,20:00,39,R,ugm-3,46,R,ugm-3,105,R,ugm-3
06-01-2006,21:00,44,R,ugm-3,46,R,ugm-3,113,R,ugm-3
06-01-2006,22:00,49,R,ugm-3,48,R,ugm-3,122,R,ugm-3
06-01-2006,23:00,44,R,ugm-3,48,R,ugm-3,115,R,ugm-3
06-01-2006,24:00,36,R,ugm-3,46,R,ugm-3,101,R,ugm-3
07-01-2006,01:00,34,R,ugm-3,42,R,ugm-3,94,R,ugm-3
07-01-2006,02:00,26,R,ugm-3,40,R,ugm-3,80,R,ugm-3
07-01-2006,03:00,16,R,ugm-3,40,R,ugm-3,65,R,ugm-3
07-01-2006,04:00,13,R,ugm-3,38,R,ugm-3,57,R,ugm-3
07-01-2006,05:00,56,R,ugm-3,48,R,ugm-3,134,R,ugm-3
07-01-2006,06:00,84,R,ugm-3,48,R,ugm-3,176,R,ugm-3
07-01-2006,07:00,91,R,ugm-3,48,R,ugm-3,187,R,ugm-3
07-01-2006,08:00,85,R,ugm-3,48,R,ugm-3,178,R,ugm-3
07-01-2006,09:00,88,R,ugm-3,50,R,ugm-3,183,R,ugm-3
07-01-2006,10:00,138,R,ugm-3,61,R,ugm-3,271,R,ugm-3
07-01-2006,11:00,135,R,ugm-3,57,R,ugm-3,264,R,ugm-3
07-01-2006,12:00,76,R,ugm-3,48,R,ugm-3,164,R,ugm-3
07-01-2006,13:00,71,R,ugm-3,50,R,ugm-3,159,R,ugm-3
07-01-2006,14:00,101,R,ugm-3,55,R,ugm-3,210,R,ugm-3
07-01-2006,15:00,71,R,ugm-3,46,R,ugm-3,155,R,ugm-3
07-01-2006,16:00,68,R,ugm-3,50,R,ugm-3,153,R,ugm-3
07-01-2006,17:00,95,R,ugm-3,55,R,ugm-3,201,R,ugm-3
07-01-2006,18:00,64,R,ugm-3,53,R,ugm-3,151,R,ugm-3
07-01-2006,19:00,45,R,ugm-3,55,R,ugm-3,124,R,ugm-3
07-01-2006,20:00,48,R,ugm-3,50,R,ugm-3,122,R,ugm-3
07-01-2006,21:00,16,R,ugm-3,38,R,ugm-3,63,R,ugm-3
07-01-2006,22:00,36,R,ugm-3,46,R,ugm-3,101,R,ugm-3
07-01-2006,23:00,23,R,ugm-3,40,R,ugm-3,74,R,ugm-3
07-01-2006,24:00,24,R,ugm-3,42,R,ugm-3,78,R,ugm-3
08-01-2006,01:00,29,R,ugm-3,40,R,ugm-3,84,R,ugm-3
08-01-2006,02:00,20,R,ugm-3,38,R,ugm-3,69,R,ugm-3
08-01-2006,03:00,18,R,ugm-3,40,R,ugm-3,67,R,ugm-3
08-01-2006,04:00,14,R,ugm-3,38,R,ugm-3,59,R,ugm-3
08-01-2006,05:00,11,R,ugm-3,38,R,ugm-3,55,R,ugm-3
08-01-2006,06:00,9,R,ugm-3,34,R,ugm-3,48,R,ugm-3
08-01-2006,07:00,11,R,ugm-3,34,R,ugm-3,52,R,ugm-3
08-01-2006,08:00,15,R,ugm-3,38,R,ugm-3,61,R,ugm-3
08-01-2006,09:00,11,R,ugm-3,34,R,ugm-3,52,R,ugm-3
08-01-2006,10:00,11,R,ugm-3,31,R,ugm-3,48,R,ugm-3
08-01-2006,11:00,13,R,ugm-3,29,R,ugm-3,48,R,ugm-3
08-01-2006,12:00,11,R,ugm-3,29,R,ugm-3,46,R,ugm-3
08-01-2006,13:00,10,R,ugm-3,27,R,ugm-3,42,R,ugm-3
08-01-2006,14:00,6,R,ugm-3,25,R,ugm-3,34,R,ugm-3
08-01-2006,15:00,6,R,ugm-3,27,R,ugm-3,36,R,ugm-3
08-01-2006,16:00,4,R,ugm-3,23,R,ugm-3,29,R,ugm-3
08-01-2006,17:00,3,R,ugm-3,25,R,ugm-3,29,R,ugm-3
08-01-2006,18:00,4,R,ugm-3,31,R,ugm-3,36,R,ugm-3
08-01-2006,19:00,5,R,ugm-3,31,R,ugm-3,38,R,ugm-3
08-01-2006,20:00,5,R,ugm-3,27,R,ugm-3,34,R,ugm-3
08-01-2006,21:00,3,R,ugm-3,21,R,ugm-3,25,R,ugm-3
08-01-2006,22:00,1,R,ugm-3,19,R,ugm-3,21,R,ugm-3
08-01-2006,23:00,1,R,ugm-3,15,R,ugm-3,17,R,ugm-3
08-01-2006,24:00,1,R,ugm-3,15,R,ugm-3,17,R,ugm-3
09-01-2006,01:00,0,R,ugm-3,19,R,ugm-3,19,R,ugm-3
09-01-2006,02:00,0,R,ugm-3,17,R,ugm-3,17,R,ugm-3
09-01-2006,03:00,0,R,ugm-3,15,R,ugm-3,15,R,ugm-3
09-01-2006,04:00,0,R,ugm-3,15,R,ugm-3,15,R,ugm-3
09-01-2006,05:00,4,R,ugm-3,19,R,ugm-3,25,R,ugm-3
09-01-2006,06:00,1,R,ugm-3,23,R,ugm-3,25,R,ugm-3
09-01-2006,07:00,6,R,ugm-3,32,R,ugm-3,42,R,ugm-3
09-01-2006,08:00,18,R,ugm-3,38,R,ugm-3,65,R,ugm-3
09-01-2006,09:00,29,R,ugm-3,42,R,ugm-3,86,R,ugm-3
09-01-2006,10:00,49,R,ugm-3,46,R,ugm-3,120,R,ugm-3
09-01-2006,11:00,,,,,,,,,
09-01-2006,12:00,,,,,,,,,
09-01-2006,13:00,,,,,,,,,
09-01-2006,14:00,,,,,,,,,
09-01-2006,15:00,,,,,,,,,
09-01-2006,16:00,,,,,,,,,
09-01-2006,17:00,,,,,,,,,
09-01-2006,18:00,,,,,,,,,
09-01-2006,19:00,,,,,,,,,
09-01-2006,20:00,,,,,,,,,
09-01-2006,21:00,,,,,,,,,
09-01-2006,22:00,,,,,,,,,
09-01-2006,23:00,,,,,,,,,
09-01-2006,24:00,,,,,,,,,
10-01-2006,01:00,,,,,,,,,
10-01-2006,02:00,,,,,,,,,
10-01-2006,03:00,,,,,,,,,
10-01-2006,04:00,,,,,,,,,
10-01-2006,05:00,,,,,,,,,
10-01-2006,06:00,,,,,,,,,
10-01-2006,07:00,,,,,,,,,
10-01-2006,08:00,,,,,,,,,
10-01-2006,09:00,,,,,,,,,
10-01-2006,10:00,,,,,,,,,
10-01-2006,11:00,,,,,,,,,
10-01-2006,12:00,,,,,,,,,
10-01-2006,13:00,,,,,,,,,
10-01-2006,14:00,,,,,,,,,
10-01-2006,15:00,,,,,,,,,
10-01-2006,16:00,,,,,,,,,
10-01-2006,17:00,,,,,,,,,
10-01-2006,18:00,,,,,,,,,
10-01-2006,19:00,,,,,,,,,
10-01-2006,20:00,,,,,,,,,
10-01-2006,21:00,,,,,,,,,
10-01-2006,22:00,,,,,,,,,
10-01-2006,23:00,,,,,,,,,
10-01-2006,24:00,,,,,,,,,
11-01-2006,01:00,,,,,,,,,
11-01-2006,02:00,,,,,,,,,
11-01-2006,03:00,,,,,,,,,
11-01-2006,04:00,,,,,,,,,
11-01-2006,05:00,,,,,,,,,
11-01-2006,06:00,,,,,,,,,
11-01-2006,07:00,,,,,,,,,
11-01-2006,08:00,,,,,,,,,
11-01-2006,09:00,,,,,,,,,
11-01-2006,10:00,,,,,,,,,
11-01-2006,11:00,,,,,,,,,
11-01-2006,12:00,,,,,,,,,
11-01-2006,13:00,,,,,,,,,
11-01-2006,14:00,15,R,ugm-3,61,R,ugm-3,84,R,ugm-3
11-01-2006,15:00,18,R,ugm-3,59,R,ugm-3,86,R,ugm-3
11-01-2006,16:00,29,R,ugm-3,80,R,ugm-3,124,R,ugm-3
11-01-2006,17:00,59,R,ugm-3,113,R,ugm-3,202,R,ugm-3
11-01-2006,18:00,91,R,ugm-3,139,R,ugm-3,279,R,ugm-3
11-01-2006,19:00,80,R,ugm-3,136,R,ugm-3,258,R,ugm-3
11-01-2006,20:00,103,R,ugm-3,147,R,ugm-3,304,R,ugm-3
11-01-2006,21:00,76,R,ugm-3,130,R,ugm-3,246,R,ugm-3
11-01-2006,22:00,60,R,ugm-3,117,R,ugm-3,208,R,ugm-3
11-01-2006,23:00,75,R,ugm-3,122,R,ugm-3,237,R,ugm-3
11-01-2006,24:00,43,R,ugm-3,99,R,ugm-3,164,R,ugm-3
12-01-2006,01:00,60,R,ugm-3,88,R,ugm-3,180,R,ugm-3
12-01-2006,02:00,51,R,ugm-3,80,R,ugm-3,159,R,ugm-3
12-01-2006,03:00,45,R,ugm-3,78,R,ugm-3,147,R,ugm-3
12-01-2006,04:00,24,R,ugm-3,73,R,ugm-3,109,R,ugm-3
12-01-2006,05:00,18,R,ugm-3,69,R,ugm-3,96,R,ugm-3
12-01-2006,06:00,23,R,ugm-3,67,R,ugm-3,101,R,ugm-3
12-01-2006,07:00,44,R,ugm-3,82,R,ugm-3,149,R,ugm-3
12-01-2006,08:00,18,R,ugm-3,71,R,ugm-3,97,R,ugm-3
12-01-2006,09:00,15,R,ugm-3,63,R,ugm-3,86,R,ugm-3
12-01-2006,10:00,15,R,ugm-3,53,R,ugm-3,76,R,ugm-3
12-01-2006,11:00,11,R,ugm-3,44,R,ugm-3,61,R,ugm-3
12-01-2006,12:00,11,R,ugm-3,36,R,ugm-3,53,R,ugm-3
12-01-2006,13:00,9,R,ugm-3,32,R,ugm-3,46,R,ugm-3
12-01-2006,14:00,8,R,ugm-3,32,R,ugm-3,44,R,ugm-3
12-01-2006,15:00,9,R,ugm-3,38,R,ugm-3,52,R,ugm-3
12-01-2006,16:00,9,R,ugm-3,44,R,ugm-3,57,R,ugm-3
12-01-2006,17:00,6,R,ugm-3,48,R,ugm-3,57,R,ugm-3
12-01-2006,18:00,6,R,ugm-3,48,R,ugm-3,57,R,ugm-3
12-01-2006,19:00,5,R,ugm-3,46,R,ugm-3,53,R,ugm-3
12-01-2006,20:00,3,R,ugm-3,36,R,ugm-3,40,R,ugm-3
12-01-2006,21:00,1,R,ugm-3,32,R,ugm-3,34,R,ugm-3
12-01-2006,22:00,1,R,ugm-3,32,R,ugm-3,34,R,ugm-3
12-01-2006,23:00,1,R,ugm-3,29,R,ugm-3,31,R,ugm-3
12-01-2006,24:00,1,R,ugm-3,23,R,ugm-3,25,R,ugm-3
13-01-2006,01:00,1,R,ugm-3,19,R,ugm-3,21,R,ugm-3
13-01-2006,02:00,1,R,ugm-3,17,R,ugm-3,19,R,ugm-3
13-01-2006,03:00,1,R,ugm-3,15,R,ugm-3,17,R,ugm-3
13-01-2006,04:00,1,R,ugm-3,15,R,ugm-3,17,R,ugm-3
13-01-2006,05:00,1,R,ugm-3,15,R,ugm-3,17,R,ugm-3
13-01-2006,06:00,3,R,ugm-3,23,R,ugm-3,27,R,ugm-3
13-01-2006,07:00,5,R,ugm-3,27,R,ugm-3,34,R,ugm-3
13-01-2006,08:00,5,R,ugm-3,32,R,ugm-3,40,R,ugm-3
13-01-2006,09:00,8,R,ugm-3,34,R,ugm-3,46,R,ugm-3
13-01-2006,10:00,8,R,ugm-3,34,R,ugm-3,46,R,ugm-3
13-01-2006,11:00,9,R,ugm-3,38,R,ugm-3,52,R,ugm-3
13-01-2006,12:00,9,R,ugm-3,36,R,ugm-3,50,R,ugm-3
13-01-2006,13:00,6,R,ugm-3,32,R,ugm-3,42,R,ugm-3
13-01-2006,14:00,5,R,ugm-3,27,R,ugm-3,34,R,ugm-3
13-01-2006,15:00,6,R,ugm-3,36,R,ugm-3,46,R,ugm-3
13-01-2006,16:00,5,R,ugm-3,40,R,ugm-3,48,R,ugm-3
13-01-2006,17:00,5,R,ugm-3,40,R,ugm-3,48,R,ugm-3
13-01-2006,18:00,4,R,ugm-3,40,R,ugm-3,46,R,ugm-3
13-01-2006,19:00,1,R,ugm-3,31,R,ugm-3,32,R,ugm-3
13-01-2006,20:00,1,R,ugm-3,25,R,ugm-3,27,R,ugm-3
13-01-2006,21:00,1,R,ugm-3,19,R,ugm-3,21,R,ugm-3
13-01-2006,22:00,1,R,ugm-3,17,R,ugm-3,19,R,ugm-3
13-01-2006,23:00,1,R,ugm-3,13,R,ugm-3,15,R,ugm-3
13-01-2006,24:00,1,R,ugm-3,11,R,ugm-3,13,R,ugm-3
14-01-2006,01:00,1,R,ugm-3,11,R,ugm-3,13,R,ugm-3
14-01-2006,02:00,1,R,ugm-3,11,R,ugm-3,13,R,ugm-3
14-01-2006,03:00,1,R,ugm-3,11,R,ugm-3,13,R,ugm-3
14-01-2006,04:00,1,R,ugm-3,11,R,ugm-3,13,R,ugm-3
14-01-2006,05:00,1,R,ugm-3,11,R,ugm-3,13,R,ugm-3
14-01-2006,06:00,1,R,ugm-3,13,R,ugm-3,15,R,ugm-3
14-01-2006,07:00,3,R,ugm-3,23,R,ugm-3,27,R,ugm-3
14-01-2006,08:00,13,R,ugm-3,34,R,ugm-3,53,R,ugm-3
14-01-2006,09:00,41,R,ugm-3,57,R,ugm-3,120,R,ugm-3
14-01-2006,10:00,41,R,ugm-3,59,R,ugm-3,122,R,ugm-3
14-01-2006,11:00,31,R,ugm-3,71,R,ugm-3,118,R,ugm-3
14-01-2006,12:00,20,R,ugm-3,59,R,ugm-3,90,R,ugm-3
14-01-2006,13:00,24,R,ugm-3,59,R,ugm-3,96,R,ugm-3
14-01-2006,14:00,15,R,ugm-3,50,R,ugm-3,73,R,ugm-3
14-01-2006,15:00,11,R,ugm-3,44,R,ugm-3,61,R,ugm-3
14-01-2006,16:00,11,R,ugm-3,44,R,ugm-3,61,R,ugm-3
14-01-2006,17:00,30,R,ugm-3,67,R,ugm-3,113,R,ugm-3
14-01-2006,18:00,19,R,ugm-3,63,R,ugm-3,92,R,ugm-3
14-01-2006,19:00,9,R,ugm-3,55,R,ugm-3,69,R,ugm-3
14-01-2006,20:00,8,R,ugm-3,57,R,ugm-3,69,R,ugm-3
14-01-2006,21:00,4,R,ugm-3,52,R,ugm-3,57,R,ugm-3
14-01-2006,22:00,18,R,ugm-3,59,R,ugm-3,86,R,ugm-3
14-01-2006,23:00,6,R,ugm-3,44,R,ugm-3,53,R,ugm-3
14-01-2006,24:00,4,R,ugm-3,40,R,ugm-3,46,R,ugm-3
15-01-2006,01:00,5,R,ugm-3,48,R,ugm-3,55,R,ugm-3
15-01-2006,02:00,1,R,ugm-3,36,R,ugm-3,38,R,ugm-3
15-01-2006,03:00,1,R,ugm-3,32,R,ugm-3,34,R,ugm-3
15-01-2006,04:00,1,R,ugm-3,23,R,ugm-3,25,R,ugm-3
15-01-2006,05:00,1,R,ugm-3,11,R,ugm-3,13,R,ugm-3
15-01-2006,06:00,1,R,ugm-3,15,R,ugm-3,17,R,ugm-3
15-01-2006,07:00,1,R,ugm-3,21,R,ugm-3,23,R,ugm-3
15-01-2006,08:00,1,R,ugm-3,17,R,ugm-3,19,R,ugm-3
15-01-2006,09:00,1,R,ugm-3,19,R,ugm-3,21,R,ugm-3
15-01-2006,10:00,1,R,ugm-3,17,R,ugm-3,19,R,ugm-3
15-01-2006,11:00,3,R,ugm-3,19,R,ugm-3,23,R,ugm-3
15-01-2006,12:00,1,R,ugm-3,17,R,ugm-3,19,R,ugm-3
15-01-2006,13:00,1,R,ugm-3,19,R,ugm-3,21,R,ugm-3
15-01-2006,14:00,1,R,ugm-3,17,R,ugm-3,19,R,ugm-3
15-01-2006,15:00,1,R,ugm-3,17,R,ugm-3,19,R,ugm-3
15-01-2006,16:00,1,R,ugm-3,25,R,ugm-3,27,R,ugm-3
15-01-2006,17:00,1,R,ugm-3,25,R,ugm-3,27,R,ugm-3
15-01-2006,18:00,1,R,ugm-3,21,R,ugm-3,23,R,ugm-3
15-01-2006,19:00,1,R,ugm-3,21,R,ugm-3,23,R,ugm-3
15-01-2006,20:00,1,R,ugm-3,21,R,ugm-3,23,R,ugm-3
15-01-2006,21:00,1,R,ugm-3,21,R,ugm-3,23,R,ugm-3
15-01-2006,22:00,1,R,ugm-3,23,R,ugm-3,25,R,ugm-3
15-01-2006,23:00,1,R,ugm-3,21,R,ugm-3,23,R,ugm-3
15-01-2006,24:00,1,R,ugm-3,17,R,ugm-3,19,R,ugm-3
16-01-2006,01:00,1,R,ugm-3,17,R,ugm-3,19,R,ugm-3
16-01-2006,02:00,1,R,ugm-3,15,R,ugm-3,17,R,ugm-3
16-01-2006,03:00,1,R,ugm-3,17,R,ugm-3,19,R,ugm-3
16-01-2006,04:00,1,R,ugm-3,13,R,ugm-3,15,R,ugm-3
16-01-2006,05:00,1,R,ugm-3,13,R,ugm-3,15,R,ugm-3
16-01-2006,06:00,1,R,ugm-3,21,R,ugm-3,23,R,ugm-3
16-01-2006,07:00,4,R,ugm-3,32,R,ugm-3,38,R,ugm-3
16-01-2006,08:00,5,R,ugm-3,38,R,ugm-3,46,R,ugm-3
16-01-2006,09:00,9,R,ugm-3,48,R,ugm-3,61,R,ugm-3
16-01-2006,10:00,9,R,ugm-3,44,R,ugm-3,57,R,ugm-3
16-01-2006,11:00,9,R,ugm-3,40,R,ugm-3,53,R,ugm-3
16-01-2006,12:00,20,R,ugm-3,50,R,ugm-3,80,R,ugm-3
16-01-2006,13:00,59,R,ugm-3,61,R,ugm-3,151,R,ugm-3
16-01-2006,14:00,44,R,ugm-3,55,R,ugm-3,122,R,ugm-3
16-01-2006,15:00,25,R,ugm-3,48,R,ugm-3,86,R,ugm-3
16-01-2006,16:00,28,R,ugm-3,55,R,ugm-3,97,R,ugm-3
16-01-2006,17:00,28,R,ugm-3,57,R,ugm-3,99,R,ugm-3
16-01-2006,18:00,43,R,ugm-3,69,R,ugm-3,134,R,ugm-3
16-01-2006,19:00,18,R,ugm-3,55,R,ugm-3,82,R,ugm-3
16-01-2006,20:00,6,R,ugm-3,44,R,ugm-3,53,R,ugm-3
16-01-2006,21:00,4,R,ugm-3,36,R,ugm-3,42,R,ugm-3
16-01-2006,22:00,4,R,ugm-3,32,R,ugm-3,38,R,ugm-3
16-01-2006,23:00,4,R,ugm-3,27,R,ugm-3,32,R,ugm-3
16-01-2006,24:00,8,R,ugm-3,29,R,ugm-3,40,R,ugm-3
17-01-2006,01:00,9,R,ugm-3,31,R,ugm-3,44,R,ugm-3
17-01-2006,02:00,10,R,ugm-3,27,R,ugm-3,42,R,ugm-3
17-01-2006,03:00,23,R,ugm-3,40,R,ugm-3,74,R,ugm-3
17-01-2006,04:00,36,R,ugm-3,48,R,ugm-3,103,R,ugm-3
17-01-2006,05:00,54,R,ugm-3,50,R,ugm-3,132,R,ugm-3
17-01-2006,06:00,63,R,ugm-3,50,R,ugm-3,145,R,ugm-3
17-01-2006,07:00,66,R,ugm-3,52,R,ugm-3,153,R,ugm-3
17-01-2006,08:00,81,R,ugm-3,59,R,ugm-3,183,R,ugm-3
17-01-2006,09:00,81,R,ugm-3,57,R,ugm-3,181,R,ugm-3
17-01-2006,10:00,71,R,ugm-3,55,R,ugm-3,164,R,ugm-3
17-01-2006,11:00,75,R,ugm-3,53,R,ugm-3,168,R,ugm-3
17-01-2006,12:00,73,R,ugm-3,55,R,ugm-3,166,R,ugm-3
17-01-2006,13:00,25,R,ugm-3,38,R,ugm-3,76,R,ugm-3
17-01-2006,14:00,25,R,ugm-3,42,R,ugm-3,80,R,ugm-3
17-01-2006,15:00,25,R,ugm-3,46,R,ugm-3,84,R,ugm-3
17-01-2006,16:00,26,R,ugm-3,52,R,ugm-3,92,R,ugm-3
17-01-2006,17:00,25,R,ugm-3,53,R,ugm-3,92,R,ugm-3
17-01-2006,18:00,31,R,ugm-3,65,R,ugm-3,113,R,ugm-3
17-01-2006,19:00,41,R,ugm-3,73,R,ugm-3,136,R,ugm-3
17-01-2006,20:00,50,R,ugm-3,78,R,ugm-3,155,R,ugm-3
17-01-2006,21:00,35,R,ugm-3,67,R,ugm-3,120,R,ugm-3
17-01-2006,22:00,15,R,ugm-3,48,R,ugm-3,71,R,ugm-3
17-01-2006,23:00,14,R,ugm-3,44,R,ugm-3,65,R,ugm-3
17-01-2006,24:00,14,R,ugm-3,44,R,ugm-3,65,R,ugm-3
18-01-2006,01:00,6,R,ugm-3,50,R,ugm-3,59,R,ugm-3
18-01-2006,02:00,11,R,ugm-3,36,R,ugm-3,53,R,ugm-3
18-01-2006,03:00,13,R,ugm-3,34,R,ugm-3,53,R,ugm-3
18-01-2006,04:00,16,R,ugm-3,36,R,ugm-3,61,R,ugm-3
18-01-2006,05:00,26,R,ugm-3,46,R,ugm-3,86,R,ugm-3
18-01-2006,06:00,30,R,ugm-3,46,R,ugm-3,92,R,ugm-3
18-01-2006,07:00,33,R,ugm-3,50,R,ugm-3,99,R,ugm-3
18-01-2006,08:00,31,R,ugm-3,55,R,ugm-3,103,R,ugm-3
18-01-2006,09:00,39,R,ugm-3,65,R,ugm-3,124,R,ugm-3
18-01-2006,10:00,45,R,ugm-3,67,R,ugm-3,136,R,ugm-3
18-01-2006,11:00,46,R,ugm-3,63,R,ugm-3,134,R,ugm-3
18-01-2006,12:00,61,R,ugm-3,65,R,ugm-3,159,R,ugm-3
18-01-2006,13:00,58,R,ugm-3,61,R,ugm-3,149,R,ugm-3
18-01-2006,14:00,49,R,ugm-3,63,R,ugm-3,138,R,ugm-3
18-01-2006,15:00,38,R,ugm-3,59,R,ugm-3,117,R,ugm-3
18-01-2006,16:00,48,R,ugm-3,65,R,ugm-3,138,R,ugm-3
18-01-2006,17:00,68,R,ugm-3,78,R,ugm-3,181,R,ugm-3
18-01-2006,18:00,75,R,ugm-3,82,R,ugm-3,197,R,ugm-3
18-01-2006,19:00,61,R,ugm-3,74,R,ugm-3,168,R,ugm-3
18-01-2006,20:00,36,R,ugm-3,63,R,ugm-3,118,R,ugm-3
18-01-2006,21:00,26,R,ugm-3,57,R,ugm-3,97,R,ugm-3
18-01-2006,22:00,16,R,ugm-3,44,R,ugm-3,69,R,ugm-3
18-01-2006,23:00,16,R,ugm-3,42,R,ugm-3,67,R,ugm-3
18-01-2006,24:00,14,R,ugm-3,42,R,ugm-3,63,R,ugm-3
19-01-2006,01:00,9,R,ugm-3,38,R,ugm-3,52,R,ugm-3
19-01-2006,02:00,18,R,ugm-3,40,R,ugm-3,67,R,ugm-3
19-01-2006,03:00,21,R,ugm-3,42,R,ugm-3,74,R,ugm-3
19-01-2006,04:00,19,R,ugm-3,44,R,ugm-3,73,R,ugm-3
19-01-2006,05:00,24,R,ugm-3,42,R,ugm-3,78,R,ugm-3
19-01-2006,06:00,36,R,ugm-3,46,R,ugm-3,101,R,ugm-3
19-01-2006,07:00,49,R,ugm-3,44,R,ugm-3,118,R,ugm-3
19-01-2006,08:00,68,R,ugm-3,55,R,ugm-3,159,R,ugm-3
19-01-2006,09:00,53,R,ugm-3,61,R,ugm-3,141,R,ugm-3
19-01-2006,10:00,38,R,ugm-3,50,R,ugm-3,107,R,ugm-3
19-01-2006,11:00,26,R,ugm-3,44,R,ugm-3,84,R,ugm-3
19-01-2006,12:00,28,R,ugm-3,44,R,ugm-3,86,R,ugm-3
19-01-2006,13:00,24,R,ugm-3,42,R,ugm-3,78,R,ugm-3
19-01-2006,14:00,20,R,ugm-3,40,R,ugm-3,71,R,ugm-3
19-01-2006,15:00,16,R,ugm-3,36,R,ugm-3,61,R,ugm-3
19-01-2006,16:00,28,R,ugm-3,55,R,ugm-3,97,R,ugm-3
19-01-2006,17:00,18,R,ugm-3,44,R,ugm-3,71,R,ugm-3
19-01-2006,18:00,16,R,ugm-3,44,R,ugm-3,69,R,ugm-3
19-01-2006,19:00,10,R,ugm-3,31,R,ugm-3,46,R,ugm-3
19-01-2006,20:00,9,R,ugm-3,27,R,ugm-3,40,R,ugm-3
19-01-2006,21:00,9,R,ugm-3,31,R,ugm-3,44,R,ugm-3
19-01-2006,22:00,9,R,ugm-3,38,R,ugm-3,52,R,ugm-3
19-01-2006,23:00,3,R,ugm-3,25,R,ugm-3,29,R,ugm-3
19-01-2006,24:00,5,R,ugm-3,27,R,ugm-3,34,R,ugm-3
20-01-2006,01:00,5,R,ugm-3,29,R,ugm-3,36,R,ugm-3
20-01-2006,02:00,5,R,ugm-3,19,R,ugm-3,27,R,ugm-3
20-01-2006,03:00,5,R,ugm-3,25,R,ugm-3,32,R,ugm-3
20-01-2006,04:00,4,R,ugm-3,17,R,ugm-3,23,R,ugm-3
20-01-2006,05:00,6,R,ugm-3,23,R,ugm-3,32,R,ugm-3
20-01-2006,06:00,9,R,ugm-3,25,R,ugm-3,38,R,ugm-3
20-01-2006,07:00,16,R,ugm-3,36,R,ugm-3,61,R,ugm-3
20-01-2006,08:00,19,R,ugm-3,46,R,ugm-3,74,R,ugm-3
20-01-2006,09:00,23,R,ugm-3,52,R,ugm-3,86,R,ugm-3
20-01-2006,10:00,21,R,ugm-3,46,R,ugm-3,78,R,ugm-3
20-01-2006,11:00,19,R,ugm-3,44,R,ugm-3,73,R,ugm-3
20-01-2006,12:00,16,R,ugm-3,36,R,ugm-3,61,R,ugm-3
20-01-2006,13:00,16,R,ugm-3,34,R,ugm-3,59,R,ugm-3
20-01-2006,14:00,16,R,ugm-3,36,R,ugm-3,61,R,ugm-3
20-01-2006,15:00,15,R,ugm-3,36,R,ugm-3,59,R,ugm-3
20-01-2006,16:00,15,R,ugm-3,36,R,ugm-3,59,R,ugm-3
20-01-2006,17:00,10,R,ugm-3,36,R,ugm-3,52,R,ugm-3
20-01-2006,18:00,11,R,ugm-3,40,R,ugm-3,57,R,ugm-3
20-01-2006,19:00,11,R,ugm-3,42,R,ugm-3,59,R,ugm-3
20-01-2006,20:00,13,R,ugm-3,44,R,ugm-3,63,R,ugm-3
20-01-2006,21:00,16,R,ugm-3,50,R,ugm-3,74,R,ugm-3
20-01-2006,22:00,21,R,ugm-3,52,R,ugm-3,84,R,ugm-3
20-01-2006,23:00,14,R,ugm-3,44,R,ugm-3,65,R,ugm-3
20-01-2006,24:00,10,R,ugm-3,40,R,ugm-3,55,R,ugm-3
21-01-2006,01:00,9,R,ugm-3,34,R,ugm-3,48,R,ugm-3
21-01-2006,02:00,9,R,ugm-3,31,R,ugm-3,44,R,ugm-3
21-01-2006,03:00,13,R,ugm-3,40,R,ugm-3,59,R,ugm-3
21-01-2006,04:00,10,R,ugm-3,36,R,ugm-3,52,R,ugm-3
21-01-2006,05:00,9,R,ugm-3,34,R,ugm-3,48,R,ugm-3
21-01-2006,06:00,9,R,ugm-3,32,R,ugm-3,46,R,ugm-3
21-01-2006,07:00,10,R,ugm-3,36,R,ugm-3,52,R,ugm-3
21-01-2006,08:00,10,R,ugm-3,40,R,ugm-3,55,R,ugm-3
21-01-2006,09:00,13,R,ugm-3,42,R,ugm-3,61,R,ugm-3
21-01-2006,10:00,13,R,ugm-3,40,R,ugm-3,59,R,ugm-3
21-01-2006,11:00,13,R,ugm-3,36,R,ugm-3,55,R,ugm-3
21-01-2006,12:00,11,R,ugm-3,31,R,ugm-3,48,R,ugm-3
21-01-2006,13:00,8,R,ugm-3,27,R,ugm-3,38,R,ugm-3
21-01-2006,14:00,8,R,ugm-3,31,R,ugm-3,42,R,ugm-3
21-01-2006,15:00,9,R,ugm-3,34,R,ugm-3,48,R,ugm-3
21-01-2006,16:00,9,R,ugm-3,40,R,ugm-3,53,R,ugm-3
21-01-2006,17:00,26,R,ugm-3,65,R,ugm-3,105,R,ugm-3
21-01-2006,18:00,104,R,ugm-3,90,R,ugm-3,248,R,ugm-3
21-01-2006,19:00,131,R,ugm-3,94,R,ugm-3,294,R,ugm-3
21-01-2006,20:00,146,R,ugm-3,86,R,ugm-3,309,R,ugm-3
21-01-2006,21:00,188,R,ugm-3,88,R,ugm-3,374,R,ugm-3